Date String (YYYY-MM-DD hh:mm:ss) UTC,Instrument flags,Ambient pressure (hPa),Sample flow (lpm),Bypass flow (lpm),Sample temperature (°C),Ambient temperature (°C),ASC tube jacket temperature (°C),LED temperature (°C),Box temperature (°C),Sample RH (%),Span deviation,Mass concentration (μg/m³),Mass concentration (μg/m³),Mass concentration (μg/m³)
DateTimeUTC,F1_M11,P_M11,Q1_M11,Q2_M11,T1_M11,T2_M11,T3_M11,T4_M11,T5_M11,U1_M11,ZSPAN_M11,X2_M11,X0_M11,X1_M11
2022-05-24 23:00:00,,0824.3,5.00,0.00,28.8,27.8,00.0,37.7,30.6,16.2,-001.3,0008.79,0016.13,0007.93
2022-05-24 23:01:00,,0824.3,5.00,0.00,28.8,27.8,00.0,37.7,30.6,16.3,-001.1,0008.77,0015.73,0007.93
2022-05-24 23:02:00,,0824.3,5.00,0.00,28.8,27.9,00.0,37.7,30.6,16.3,-000.7,0008.76,0015.72,0007.91
2022-05-24 23:03:00,,0824.3,5.00,0.00,28.8,27.9,00.0,37.7,30.7,16.7,-000.8,0008.81,0015.55,0007.92
2022-05-24 23:04:00,,0824.3,5.00,0.00,28.8,27.9,00.0,37.7,30.7,16.7,-001.0,0008.80,0015.34,0007.91
2022-05-24 23:05:00,,0824.3,5.00,0.00,28.8,27.9,00.0,37.7,30.7,16.6,-001.2,0008.85,0015.95,0007.92
2022-05-24 23:06:00,,0824.3,5.00,0.00,28.8,27.9,00.0,37.7,30.7,16.3,-001.3,0008.83,0016.44,0007.92
2022-05-24 23:07:00,,0824.3,5.00,0.00,28.8,27.9,00.0,37.7,30.7,16.4,-000.9,0008.81,0016.02,0007.91
2022-05-24 23:08:00,,0824.3,5.00,0.00,28.8,27.9,00.0,37.7,30.7,16.2,-001.2,0008.79,0015.25,0007.92
2022-05-24 23:09:00,,0824.3,5.01,0.00,28.8,27.9,00.0,37.7,30.7,16.3,-000.9,0008.78,0014.83,0007.94
2022-05-24 23:10:00,,0824.3,5.00,0.00,28.8,27.9,00.0,37.7,30.7,16.6,-000.9,0008.77,0014.41,0007.96
2022-05-24 23:11:00,,0824.3,5.00,0.00,28.8,27.9,00.0,37.7,30.7,16.6,-000.9,0008.75,0014.60,0007.93
2022-05-24 23:12:00,,0824.3,5.00,0.00,28.9,27.9,00.0,37.7,30.7,16.3,-000.8,0008.78,0015.23,0007.94
2022-05-24 23:13:00,,0824.3,4.99,0.00,28.8,27.9,00.0,37.8,30.7,16.3,-000.6,0008.80,0015.68,0007.96
2022-05-24 23:14:00,,0824.3,5.01,0.00,28.9,27.9,00.0,37.8,30.7,16.3,-000.8,0008.77,0015.87,0007.97
2022-05-24 23:15:00,,0824.3,5.00,0.00,28.9,27.9,00.0,37.8,30.7,16.4,-001.1,0008.75,0015.81,0008.00
2022-05-24 23:16:00,,0824.3,5.00,0.00,28.9,27.9,00.0,37.8,30.7,16.9,-000.8,0008.71,0015.42,0007.98
2022-05-24 23:17:00,,0824.3,5.00,0.00,28.9,27.9,00.0,37.8,30.7,16.5,-000.4,0008.63,0014.58,0007.93
2022-05-24 23:18:00,,0824.3,5.01,0.00,28.9,27.9,00.0,37.8,30.7,16.0,-000.7,0008.53,0014.51,0007.82
2022-05-24 23:19:00,,0824.3,4.99,0.00,28.9,27.9,00.0,37.8,30.7,16.1,-000.6,0008.31,0014.09,0007.65
2022-05-24 23:20:00,,0824.3,5.00,0.00,28.9,27.9,00.0,37.8,30.7,16.5,-000.8,0008.10,0013.85,0007.44
2022-05-24 23:21:00,,0824.3,5.01,0.00,28.8,27.9,00.0,37.8,30.7,16.2,-001.0,0007.87,0013.77,0007.23
2022-05-24 23:22:00,,0824.3,5.00,0.00,28.8,27.9,00.0,37.8,30.7,16.5,-000.8,0007.68,0013.99,0007.05
2022-05-24 23:23:00,,0824.3,5.00,0.00,28.8,27.9,00.0,37.8,30.7,16.8,-001.0,0007.40,0012.94,0006.83
2022-05-24 23:24:00,,0824.3,5.01,0.00,28.9,27.9,00.0,37.8,30.7,16.1,-001.9,0007.20,0012.29,0006.66
2022-05-24 23:25:00,,0824.3,5.00,0.00,28.9,27.9,00.0,37.8,30.7,16.5,-001.7,0006.92,0011.63,0006.44
2022-05-24 23:26:00,,0824.3,5.00,0.00,28.9,27.9,00.0,37.8,30.7,16.6,-000.9,0006.64,0010.90,0006.16
2022-05-24 23:27:00,,0824.3,5.00,0.00,28.9,27.9,00.0,37.8,30.7,16.5,0000.0,0006.38,0010.35,0005.93
2022-05-24 23:28:00,,0824.3,5.01,0.00,28.8,27.9,00.0,37.8,30.7,16.5,0000.0,0006.20,0009.95,0005.74
2022-05-24 23:29:00,,0824.3,5.00,0.00,28.8,27.8,00.0,37.8,30.6,16.7,0000.0,0006.09,0009.91,0005.63
2022-05-24 23:30:00,,0824.3,5.01,0.00,28.8,27.8,00.0,37.8,30.6,16.7,0000.0,0006.06,0010.54,0005.56
2022-05-24 23:31:00,,0824.3,5.00,0.00,28.8,27.8,00.0,37.8,30.6,16.5,0000.0,0006.02,0010.59,0005.52
2022-05-24 23:32:00,,0824.3,5.00,0.00,28.8,27.8,00.0,37.8,30.6,16.2,0000.0,0005.98,0010.47,0005.48
2022-05-24 23:33:00,,0824.4,5.01,0.00,28.8,27.8,00.0,37.8,30.6,16.3,0000.0,0005.89,0010.07,0005.40
2022-05-24 23:34:00,,0824.4,5.01,0.00,28.8,27.8,00.0,37.8,30.7,16.5,0000.0,0005.84,0009.93,0005.36
2022-05-24 23:35:00,,0824.4,4.99,0.00,28.8,27.8,00.0,37.8,30.7,16.2,0000.0,0005.74,0009.98,0005.29
2022-05-24 23:36:00,,0824.4,5.01,0.00,28.9,27.9,00.0,37.8,30.7,16.6,0000.0,0005.67,0010.57,0005.23
2022-05-24 23:37:00,,0824.4,5.00,0.00,28.9,27.9,00.0,37.8,30.7,16.9,0000.0,0005.64,0010.51,0005.20
2022-05-24 23:38:00,,0824.4,5.01,0.00,28.9,27.9,00.0,37.8,30.7,16.5,0000.0,0005.61,0010.47,0005.18
2022-05-24 23:39:00,,0824.5,5.00,0.00,28.9,27.9,00.0,37.8,30.7,16.3,0000.0,0005.59,0010.54,0005.16
2022-05-24 23:40:00,,0824.4,4.99,0.00,28.9,27.9,00.0,37.8,30.7,16.1,0000.0,0005.57,0010.46,0005.16
2022-05-24 23:41:00,,0824.4,4.99,0.00,28.9,27.9,00.0,37.8,30.7,16.8,0000.0,0005.52,0009.94,0005.12
2022-05-24 23:42:00,,0824.4,5.01,0.00,28.9,27.9,00.0,37.8,30.7,16.2,0000.0,0005.47,0010.24,0005.10
2022-05-24 23:43:00,,0824.4,5.00,0.00,28.9,27.9,00.0,37.8,30.7,16.9,0000.0,0005.39,0010.39,0005.03
2022-05-24 23:44:00,,0824.4,5.00,0.00,28.9,27.9,00.0,37.8,30.7,17.0,0000.0,0005.34,0010.16,0004.97
2022-05-24 23:45:00,,0824.4,5.01,0.00,28.8,27.8,00.0,37.8,30.6,16.6,0000.0,0005.28,0010.11,0004.91
2022-05-24 23:46:00,,0824.4,4.99,0.00,28.8,27.8,00.0,37.8,30.6,17.1,0000.0,0005.20,0009.79,0004.82
2022-05-24 23:47:00,,0824.4,5.01,0.00,28.8,27.8,00.0,37.8,30.6,17.2,0000.0,0005.08,0009.02,0004.71
2022-05-24 23:48:00,,0824.4,4.99,0.00,28.8,27.7,00.0,37.8,30.6,17.0,0000.0,0005.02,0008.98,0004.64
2022-05-24 23:49:00,,0824.4,4.99,0.00,28.8,27.7,00.0,37.8,30.6,16.7,0000.0,0004.95,0008.87,0004.58
2022-05-24 23:50:00,,0824.4,4.99,0.00,28.8,27.7,00.0,37.8,30.5,16.8,0000.0,0004.86,0008.65,0004.50
2022-05-24 23:51:00,,0824.4,5.00,0.00,28.7,27.7,00.0,37.8,30.5,16.6,0000.0,0004.72,0008.39,0004.39
2022-05-24 23:52:00,,0824.4,5.00,0.00,28.7,27.7,00.0,37.8,30.5,16.8,0000.0,0004.64,0008.16,0004.31
2022-05-24 23:53:00,,0824.4,5.00,0.00,28.7,27.7,00.0,37.7,30.5,16.6,0000.0,0004.59,0007.56,0004.26
2022-05-24 23:54:00,,0824.4,4.99,0.00,28.7,27.6,00.0,37.7,30.5,16.8,0000.0,0004.55,0007.00,0004.20
2022-05-24 23:55:00,,0824.4,5.00,0.00,28.7,27.6,00.0,37.7,30.4,16.6,0000.0,0004.50,0006.95,0004.19
2022-05-24 23:56:00,,0824.4,4.99,0.00,28.6,27.6,00.0,37.7,30.4,16.5,0000.0,0004.52,0007.09,0004.19
2022-05-24 23:57:00,,0824.4,5.01,0.00,28.6,27.6,00.0,37.7,30.4,16.6,0000.0,0004.54,0007.82,0004.21
2022-05-24 23:58:00,,0824.4,5.00,0.00,28.6,27.6,00.0,37.7,30.4,16.6,0000.0,0004.58,0008.02,0004.25
2022-05-24 23:59:00,,0824.4,5.01,0.00,28.6,27.6,00.0,37.7,30.4,16.7,0000.0,0004.59,0008.05,0004.27
